Regional Weather Roundup
Issued by NWS

Home | Current Version | Previous Version | Graphics & Text | Print | Product List | Glossary Off
Versions: 1 2 3 4 5 6 7 8 9 10 11 12 13 14 15 16 17 18 19 20 21 22 23 24 25 26 27 28 29 30 31 32 33 34 35 36 37 38 39 40 41 42 43 44 45 46 47 48 49 50

000
ASUS43 KMKX 241121
RWRWI

WISCONSIN REGIONAL WEATHER ROUNDUP
NATIONAL WEATHER SERVICE MILWAUKEE/SULLIVAN WI
600 AM CDT FRI OCT 24 2014

NOTE: "FAIR" INDICATES FEW OR NO CLOUDS BELOW 12,000 FEET WITH NO
SIGNIFICANT WEATHER AND/OR OBSTRUCTIONS TO VISIBILITY.

WIZ001-002-006>008-014>016-023>028-241200-
NORTHWEST WISCONSIN

CITY           SKY/WX    TMP DP  RH WIND       PRES   REMARKS
SUPERIOR ARPT  FOG       39  39 100 CALM      29.89F VSB 1/2
ASHLAND        CLOUDY    43  43 100 S3        29.92F FOG
HAYWARD        CLOUDY    49  46  90 S7        29.94F
SIREN          MOCLDY    47  47  97 S9        29.92F FOG
CUMBERLAND     CLOUDY    46  46 100 S8        29.96S FOG
RICE LAKE      CLOUDY    49  48  95 SE7       29.98S FOG
CHETEK         CLOUDY    49  48  98 SE3       29.97S FOG
LADYSMITH      CLOUDY    48  47  97 S6        30.00S FOG
EAU CLAIRE     CLOUDY    49  48  97 S6        29.98F
MENOMONIE      CLOUDY    50  49  95 SE3       29.98S FOG
NEW RICHMOND   CLOUDY    46  46 100 SE3       29.95F FOG
OSCEOLA        PTCLDY    46  46 100 SE7       29.96F FOG
$$

WIZ003>005-009-010-017-018-241200-
NORTH CENTRAL WISCONSIN

CITY           SKY/WX    TMP DP  RH WIND       PRES   REMARKS
MANITOWISH WTR CLOUDY    45  45 100 S3        29.97F FOG
ARBOR VITAE    FOG       45  44  97 S6        29.98S VSB 3/4
WOODRUFF       FOG       45  44  97 S6        29.98S VSB 3/4
RHINELANDER    FOG       43  43 100 SW3       30.00F VSB 1/2
EAGLE RIVER    FOG       43  43 100 SW5       29.98F VSB 1/2
LAND O LAKES   FOG       44  44 100 CALM      29.99F VSB 1/2
PHILLIPS       CLOUDY    45  45 100 SW5       29.98F FOG
TOMAHAWK       HVY RAIN  43  43  98 CALM      30.00F VSB 1/4
MEDFORD        FOG       43  43 100 CALM      30.00S VSB 1/4
MERRILL        FOG       44  44 100 CALM      30.00F VSB 3/4
$$

WIZ029-030-035-036-043>047-241200-
CENTRAL WISCONSIN

CITY           SKY/WX    TMP DP  RH WIND       PRES   REMARKS
WAUSAU         FOG       45  45 100 SW3       30.00F VSB 3/4
MOSINEE        FOG       45  45 100 SW5       30.02S VSB 1/4
MARSHFIELD     FOG       46  45  96 SW5       30.00F VSB 1/4
STEVENS POINT  FOG       44  44  99 SW6       30.02S VSB 1/2
WAUPACA        CLOUDY    49  48  97 W6        30.03S FOG
WAUTOMA        CLOUDY    48  47  97 W7        30.04S FOG
WISC RAPIDS    FOG       46  45  96 W7        30.03F VSB 1/2
CAMP DOUGLAS   FOG       46  46 100 S2        30.02F VSB 1
$$

WIZ011>013-019>022-031-037>040-048>050-241200-
NORTHEAST WISCONSIN

CITY           SKY/WX    TMP DP  RH WIND       PRES   REMARKS
ANTIGO         FOG       42  42 100 NW5       30.01F VSB 1/2
SHAWANO        CLOUDY    47  46  95 W6        30.02S FOG
OCONTO         CLOUDY    47  47 100 W5        30.02R
STURGEON BAY   CLOUDY    48  45  87 W6        30.02R
GREEN BAY      CLOUDY    48  47  96 SW3       30.02R FOG
MANITOWOC      CLOUDY    48  48 100 W5        30.03S FOG
APPLETON         N/A     46  46 100 VRB5      30.03R FOG
CLINTONVILLE   CLOUDY    46  45  93 W6        30.02S
OSHKOSH        CLOUDY    48  47  96 W3        30.03R FOG
$$

WIZ032>034-041-042-053>061-241200-
SOUTHWEST WISCONSIN

CITY           SKY/WX    TMP DP  RH WIND       PRES   REMARKS
LA CROSSE      CLOUDY    51  50  96 S7        30.00F FOG
SPARTA         CLOUDY    48  48  99 S3        30.02F FOG
VIROQUA        CLOUDY    48  48 100 CALM      30.02F VSB 1/4
BOSCOBEL       FOG       51  49  92 CALM      30.03F VSB 1/2
PRAIRIE DU CHI FOG       51  50  97 E3        30.02F VSB 1
PLATTEVILLE    CLOUDY    50  49  98 CALM      30.05S VSB 1/4
$$

WIZ056-057-062-063-064-067-068-241200-
SOUTH CENTRAL WISCONSIN

CITY           SKY/WX    TMP DP  RH WIND       PRES   REMARKS
REEDSBURG      FOG       46  46 100 SW3       30.03F VSB 1
BARABOO/DELLS  FOG       46  45  96 SW6       30.04S VSB 3/4
LONE ROCK      FOG       52  48  86 CALM      30.04F VSB 3/4
MINERAL POINT  FOG       50  48  93 CALM      30.04S VSB 1/4
MADISON        FOG       49  48  97 SW5       30.05R VSB 1
MIDDLETON      CLOUDY    50  50 100 CALM      30.05S VSB 1/2
WATERTOWN      CLOUDY    47  47 100 NW3       30.04S FOG
MONROE         FOG       48  48 100 CALM      30.05R VSB 3/4
JANESVILLE     CLOUDY    52  48  87 NW6       30.05R FOG
$$

WIZ051-052-058>065-066-070>072-241200-
SOUTHEAST WISCONSIN

CITY           SKY/WX    TMP DP  RH WIND       PRES   REMARKS
MILWAUKEE      CLOUDY    51  49  92 W5        30.04S
WAUKESHA       CLOUDY    48  48 100 W5        30.05R FOG
MILWAUKEE/TIMM CLOUDY    50  46  87 W3        30.04S FOG
RACINE         CLOUDY    52  48  86 W5        30.06S
BURLINGTON     CLOUDY    48  48 100 W5        30.05R FOG
KENOSHA        CLOUDY    50  48  93 W5        30.05R FOG
FOND DU LAC    CLOUDY    48  46  93 SW5       30.04R FOG
SHEBOYGAN      CLOUDY    49  47  93 W6        30.03S FOG
WEST BEND      CLOUDY    46  45  93 W3        30.03S FOG
JUNEAU         FOG       46  46  99 W3        30.05S VSB 1/4
$$

LSZ147-162-241200-
LAKE SUPERIOR

STATION/POSITION TIME  TEMP    WIND        PRES    WAVE
                       AIR SEA DIR/SP/G            HT/PER
                 (UTC) (F)     (DEG/KT/KT) (MB)    (FT/S)
W MID LAKE BUOY  1050   47 46  180/  8/  8 1013.5F   1/ 3
DEVILS ISLAND    1100   48     170/  5/  6 1012.9F
PORT WING        1000   46     190/  1/  4 1013.2F
SAXON HARBOR     1000   49     200/  1/  3 1013.9R
$$

LMZ867-665-643>646-241200-
LAKE MICHIGAN

STATION/POSITION TIME  TEMP    WIND        PRES    WAVE
                       AIR SEA DIR/SP/G            HT/PER
                 (UTC) (F)     (DEG/KT/KT) (MB)    (FT/S)
CHAMBERS ISLAND  1000   49     220/  4/  8 1015.9S
N MID LAKE BUOY  1050   50 51  230/  6/  8 1016.1S   2/ 5
NORTHPORT PIER   1000   49     200/  2/  4 1015.9S
SISTER BAY       0958             CALM       N/A
ALGOMA LAKESHORE 1011             CALM       N/A
KEWAUNEE LAKESHO 1100   49     280/  3/  4 1015.6R
SHEBOYGAN LAKESH 1100   49 51  260/  4/  5 1017.2S
PORT WASHINGTON  1040   51     280/  2/  5 1017.6S
ATWATER BUOY     1100   52     250/  4/  6 1018.2F
MILWAUKEE LAKESH 1100   51     290/  3/  4   N/A
S MID LAKE BUOY  1050   54 54  270/  8/ 10 1017.4F   1/ 3
KENOSHA   LAKESH 1100   51     280/  4/  7 1017.3S
$$

TC  - TEMPERATURE IN CELSIUS
VSB - VISIBILITY IN STATUTE MILES
WCI - WIND CHILL INDEX
HX  - HEAT INDEX




USA.gov is the U.S. government's official web portal to all federal, state and local government web resources and services.